NUSANTARA SATU

Last updated on Fri Dec 19 2025 00:02:52 GMT+0000 (Coordinated Universal Time)

1 44048U 19009A 25351.65548291 -.00000209 00000+0 00000+0 0 9995 2 44048 0.0471 155.4825 0001761 16.7850 296.2539 1.00270053 24950
UTC large
Height (km)
Speed (km/s)
/
Latitude / Longitude
Inclination (degrees)
Orbital Period (minutes)
Azimuth
Elevation
Range (km)
Doppler Factor

Next 0 passes for location: London (51.5072 / 0.1276)

Sorry there are no passes over London.